Regional Weather Roundup
Issued by NWS

Home | Current Version | Previous Version | Text Only | Print | Product List | Glossary On
Versions: 1 2 3 4 5 6 7 8 9 10 11 12 13 14 15 16 17 18 19 20 21 22 23 24 25 26 27 28 29 30 31 32 33 34 35 36 37 38 39 40 41 42 43 44 45 46 47 48 49 50
000
ASUS44 KLIX 211810
RWRLA
LOUISIANA WEATHER ROUNDUP
NATIONAL WEATHER SERVICE NEW ORLEANS LA
100 PM CDT SUN SEP 21 2014

NOTE: "FAIR" INDICATES FEW OR NO CLOUDS BELOW 12,000 FEET WITH NO
      SIGNIFICANT WEATHER AND/OR OBSTRUCTIONS TO VISIBILITY.
      SKY/WX - SKY CONDITION AND SIGNIFICANT WEATHER.
      TMP - AIR TEMPERATURE.    DP   - DEWPOINT TEMPERATURE.
      RH  - RELATIVE HUMIDITY.  PRES - PRESSURE.
      HX  - HEAT INDEX.         WCI  - WIND CHILL INDEX.

*  THESE STATIONS ARE NOT NWS OR FAA STATIONS AND ARE NOT UNDER
   NWS QUALITY CONTROL.

LAZ040-048-061>063-065-066-069-211900-
SOUTHEAST LOUISIANA

CITY           SKY/WX    TMP DP  RH WIND       PRES   REMARKS
N.O. AUDUBON     N/A     90  70  51 MISG        N/A  HX  95
6HR MIN TEMP:  73; 6HR MAX TEMP:  90;

N.O. INTL ARPT MOSUNNY   88  67  49 N14       30.02F
6HR MIN TEMP:  76; 6HR MAX TEMP:  88;

N.O. LAKEFRONT SUNNY     86  69  56 N9        30.03F
6HR MIN TEMP:  76; 6HR MAX TEMP:  86;

N.O. DOWNTOWN* MOCLDY    88  66  48 NE6       30.03F
6HR MIN TEMP:  75; 6HR MAX TEMP:  88;

SLIDELL        MOSUNNY   86  67  52 N10       30.03F
6HR MIN TEMP:  66; 6HR MAX TEMP:  87;

BATON ROUGE    SUNNY     87  65  47 NE12      30.04F
6HR MIN TEMP:  69; 6HR MAX TEMP:  87;

BOOTHVILLE     MOSUNNY   86  74  67 NE10      30.01F
6HR MIN TEMP:  79; 6HR MAX TEMP:  86; 6HR PCP: TRACE;

BELLE CHASSE   MOSUNNY   86  68  54 E12       30.01F
6HR MIN TEMP:  71; 6HR MAX TEMP:  87;

BOGALUSA*        N/A     87  66  49 N7        30.05F
6HR MIN TEMP:  65; 6HR MAX TEMP:  88;

GALLIANO*      NOT AVBL
NEW ROADS*     FAIR      86  68  55 NE6       30.04F
6HR MIN TEMP:  67; 6HR MAX TEMP:  86;

GONZALES*      FAIR      85  69  57 N6        30.03F
6HR MIN TEMP:  69; 6HR MAX TEMP:  85;

HAMMOND*       SUNNY     88  64  45 E6        30.05F
HOUMA*         MOSUNNY   86  48  26 N12       30.01F
PORT FOURCHON* PTCLDY    84  72  65 NE13      30.03F

$$

LAZ041-044-053-054-211900-
SOUTHWEST LOUISIANA

CITY           SKY/WX    TMP DP  RH WIND       PRES   REMARKS
LAKE CHARLES   PTSUNNY   87  69  54 N10       30.03F
6HR MIN TEMP:  69; 6HR MAX TEMP:  88;

LAFAYETTE      SUNNY     88  68  51 NE12      30.03F
6HR MIN TEMP:  71; 6HR MAX TEMP:  88;

PATTERSON      SUNNY     88  70  55 NE9         N/A
6HR MIN TEMP:  72; 6HR MAX TEMP:  88;

SALT POINT       N/A     89  69  51 VRB6      30.01F
6HR MIN TEMP:  75; 6HR MAX TEMP:  89;

NEW IBERIA     SUNNY     88  68  51 NE14      30.03F
6HR MIN TEMP:  71; 6HR MAX TEMP:  89;

CHENAULT AIRPK MOSUNNY   88  72  58 VRB6      30.05F

$$

LAZ027-028-211900-
CENTRAL LOUISIANA

CITY           SKY/WX    TMP DP  RH WIND       PRES   REMARKS
FORT POLK      MOSUNNY   87  69  54 N5        30.06F
6HR MIN TEMP:  67; 6HR MAX TEMP:  88;

ALEXANDRIA INT PTSUNNY   87  69  54 N6        30.03F
6HR MIN TEMP:  66; 6HR MAX TEMP:  89;

ALEXANDRIA     MOSUNNY   90  70  51 VRB5      30.05F HX  95
6HR MIN TEMP:  67; 6HR MAX TEMP:  92;


$$

LAZ001-002-211900-
NORTHWEST LOUISIANA

CITY           SKY/WX    TMP DP  RH WIND       PRES   REMARKS
SHREVEPORT     MOSUNNY   92  65  40 NW8       30.05F
6HR MIN TEMP:  69; 6HR MAX TEMP:  93;

BARKSDALE AFB  SUNNY     91  65  41 N7        30.05F
6HR MIN TEMP:  68; 6HR MAX TEMP:  93;

DTN SHREVEPORT SUNNY     91  66  43 VRB5      30.05F
6HR MIN TEMP:  68; 6HR MAX TEMP:  91;


$$

LAZ014-016-211900-
NORTHEAST LOUISIANA

CITY           SKY/WX    TMP DP  RH WIND       PRES   REMARKS
MONROE         SUNNY     90  68  48 N7        30.05F
6HR MIN TEMP:  68; 6HR MAX TEMP:  90;

TALLULAH       MOSUNNY   88  66  48 MISG      30.04F
6HR MIN TEMP:  65; 6HR MAX TEMP:  90;


$$




USA.gov is the U.S. government's official web portal to all federal, state and local government web resources and services.